Location: Newark
(42.7133°N, 87.7910°W)
Time: 17:59:38
(UTC+00:00)

Vanguard 1 - Pass Details

Date: 27 October 2019
Orbit: 652 x 3831 km, 34.2° (Epoch: 21 November)

Event Time Altitude Azimuth Distance (km) Brightness Sun altitude
Rises 03:02:06 0° 270° (W) 4,325 14.0 -45.4°
Reaches altitude 10° 03:04:37 10° 263° (W) 3,654 13.4 -45.8°
Enters shadow 03:10:14 37° 233° (SW) 2,721 12.2 -46.6°
